星链-37198(STARLINK-37198)

导读

STARLINK-37198(NORAD编号68386)是SpaceX星链星座中的一颗互联网卫星,星链计划通过近地轨道卫星群提供全球宽带互联网服务。该卫星采用氩气离子推进系统,配备ku/ka波段相控阵天线,可实现高速低 latency数据传输,依靠双太阳能阵列供电,并通过星跟踪器实现精确定位与姿态控制,目前在近地轨道运行,服务于全球偏远地区及移动场景的互联网接入需求。

Basic Information
目录编号:
68386
目录名称:
STARLINK-37198
国际标识:
2026-063G
轨道中心:
EARTH
卫星名称:
星链-37198
卫星全名:
星链-37198(STARLINK-37198)
卫星状态:
在轨 (已飞行162 天)
发射日期:
2026-03-26 UTC
国别 :
美国 (US)
星等 :
--
Orbit Information
数据来源 国际轨道数据
星历时间: 2026-09-03T23:51:50+0800
13小时前
查看轨道信息
半长轴: 6843.683km
偏心率: 0.0000875
轨道倾角: 97.285°
近地点辐角 86.390°
升交点赤经 27.847°
平近点角 273.744°
近地点: 464.947km
远地点: 466.145km
周期: 93.906分钟
每日圈数: 15.334442
Detailed Information
固有亮度:
5
最大亮度:
2.5
卫星平台:
Starlink V1.0
覆盖范围:
全球
运营商:
太空探索技术公司
运营商所在国:
美国
制造商(研发单位):
太空探索技术公司
制造商所在国:
美国
使用方式:
暂无
Satellite Introduction
Starlink 计划是 SpaceX 推出的全球卫星互联网项目,通过发射低轨道卫星,为全球尤其是偏远地区提供高速、低延迟的互联网服务。自 2019 年起,Starlink 已部署数千颗卫星,旨在缩小全球数字鸿沟,推动互联网普及。该项目还为军事、航空等行业提供通信支持,带来广泛经济效益。
2D Orbit Map
3D Orbit Map
Orbit Altitude Analysis Chart
Orbit Inclination Analysis Chart
Orbit Comprehensive Analysis Chart
View Comprehensive Chart
Conjunction Data List
Event ID Objects TCA Miss Dist (km) Collision Risk Probability Collision Risk Index (CRI) Action
CDM_260905-010703-074406-838621
2026-09-05T
01:07:05+0000
1.804 km
极远距离
2.117E-6 低风险 0.42
CDM_260905-032803-074406-838621
2026-09-05T
03:28:02+0000
1.901 km
极远距离
1.841398E-6 低风险 0.4
CDM_260905-000104-839006-838621
2026-09-05T
00:01:38+0000
2.648 km
极远距离
1.587275E-6 低风险 0.39
CDM_260905-050203-074406-838621
2026-09-05T
05:02:00+0000
2.206 km
极远距离
1.304036E-6 低风险 0.37
CDM_260904-091705-245906-838621
2026-09-04T
09:17:33+0000
2.591 km
极远距离
1.222019E-6 低风险 0.37
CDM_260904-065506-419406-838621
2026-09-04T
06:55:20+0000
2.668 km
极远距离
1.101129E-6 低风险 0.36